sat.trackr.live / text

‹ back to catalog

ORBCOMM FM110

NORAD 41182 · 2015-081D

PAYLOAD ACTIVE UNKNOWN

§ Identity

Operator
Country
ORB
Launch date
2015-12-22
Launch site
AFETR
Launch vehicle
Mass (kg)
RCS (m²)
0.57

Purposes: comms

External: N2YO · Heavens-Above · Gunter

§ Orbital elements

Epoch: 2026-09-09T21:16:09.545376Z

Period
98.70 min
Inclination
47.0028°
Eccentricity
0.0001988
Mean motion
14.58984001 rev/d
Perigee alt
695.1 km
Apogee alt
697.9 km
Semi-major
7,074.6 km
B*
1.1076e-4
RAAN
320.9263°
Arg perigee
122.5075°
Mean anomaly
237.6003°
Rev number
56,999

§ Raw data

ORBCOMM FM1101 41182U 15081D   26252.88622159  .00000354  00000+0  11076-3 0  99982 41182  47.0028 320.9263 0001988 122.5075 237.6003 14.58984001569991

JSON: /api/v1/satellites/41182 · /tle

For live sub-satellite position, see the globe view (requires WebGL).

§ Visibility from observer

Set your observer location to see the next 7 days of passes ≥ 10°. The values pass through the URL so the page stays shareable.

No JS? Fill the form by hand. The geolocation button needs JavaScript.

§ Radio — SatNOGS DB

ModeDescriptionDownlinkUplink
FM Telemetry 137.288 MHz

1 transmitter · refreshed weekly from db.satnogs.org